Flag for Germany Weather past 2 weeks in Viersen, North Rhine-Westphalia, Germany

Now
54 °F

Partly cloudy.


Feels Like: 49 °F
Forecast: 42 / 50 °F
Wind: 16 mph from Northwest

Location: Monchengladbach Airport

Current Time: Oct 21, 2014 at 5:17:01 PM

Latest Report: Oct 21, 2014 at 4:50 PM


Visibility: N/A

Pressure: 29.53 "Hg

Humidity: 88%

Dew point: 50 °F

Location of ViersenLocation

Historic Weather in Viersen — Graph

°F

Viersen temperature yesterday

Maximum temperature yesterday: 63 °F (at 1:50 PM)
Minimum temperature yesterday: 57 °F (at 7:50 AM)
Average temperature yesterday: 60 °F

Past Weeks' High & Low Weather Summary

 TemperatureHumidityPressure
High75 °F (Oct 19, 1:20 PM)100% (Oct 7, 7:50 AM)30.09 "Hg (Oct 7, 7:50 AM)
Low45 °F (Oct 11, 7:50 AM)56% (Oct 10, 2:20 PM)29.50 "Hg (Oct 7, 9:50 AM)
Average60 °F80%29.81 "Hg
* Reported Oct 6 3:20 PM — Oct 21 3:50 PM, Viersen, Weather by CustomWeather, © 2014

Note: Actual official high and low records may vary slightly from our data, if they occured in-between our weather recording intervals... More about our weather records

Advertising

Viersen weather history for previous 24 hours

 ConditionsComfort  
Time TempWeatherWind HumidityBarometerVisibility
3:50 PM
Oct 21
57 °FRain showers. Passing clouds.14 mph82%29.50 "Hg4 mi
3:20 PM55 °FLight rain. Passing clouds.13 mph94%29.50 "HgN/A
2:50 PM55 °FRain. Passing clouds.16 mph88%29.53 "Hg4 mi
2:20 PM55 °FPassing clouds.13 mph88%29.56 "HgN/A
1:50 PM55 °FPassing clouds.14 mph88%29.59 "HgN/A
1:20 PM54 °FPassing clouds.13 mph94%29.62 "HgN/A
12:50 PM54 °FLight rain. Passing clouds.13 mph94%29.65 "Hg3 mi
12:20 PM55 °FLight rain. Passing clouds.14 mph82%29.65 "Hg3 mi
11:50 AM57 °FPassing clouds.15 mph77%29.68 "HgN/A
11:20 AM57 °FPassing clouds.13 mph77%29.68 "HgN/A
10:50 AM55 °FLight rain. Partly cloudy.13 mph82%29.71 "Hg6 mi
10:20 AM55 °FPartly sunny.13 mph82%29.74 "HgN/A
9:50 AM55 °FPartly sunny.10 mph82%29.74 "HgN/A
9:20 AM54 °FScattered clouds.9 mph82%29.77 "HgN/A
8:50 AM54 °FPassing clouds.10 mph82%29.77 "HgN/A
8:20 AM54 °FCool.13 mph88%29.80 "HgN/A
7:50 AM54 °FPartly sunny.9 mph88%29.77 "Hg5 mi
8:20 PM
Oct 20
57 °FPassing clouds.6 mph88%29.98 "HgN/A
7:50 PM57 °FRain showers. Passing clouds.6 mph88%29.98 "Hg5 mi
7:20 PM57 °FPassing clouds.6 mph82%29.98 "HgN/A
6:50 PM59 °FPassing clouds.6 mph77%29.98 "HgN/A
6:20 PM59 °FPassing clouds.6 mph77%29.98 "HgN/A
5:50 PM61 °FPassing clouds.7 mph72%29.98 "HgN/A
5:20 PM61 °FPassing clouds.9 mph72%29.98 "HgN/A
Weather by CustomWeather, © 2014

See weather overviewHow to use our weather pages